Orlando, FL

7:26 AM EST on February 09, 2016 (GMT -0500)
Orlando International

Weather History for KMCO - September, 2011

Change the Weather History Date:

Thursday, September 22, 2011

  Actual Average Record
Temperature  
Mean Temperature 83 °F 80 °F  
Max Temperature 91 °F 89 °F 96 °F (1990)
Min Temperature 74 °F 72 °F 57 °F (1897)
Degree Days  
Heating Degree Days 0 0  
Month to date heating degree days 0 0  
Since 1 July heating degree days 0 0  
Cooling Degree Days 18 15  
Month to date cooling degree days 365 364  
Year to date cooling degree days 3100 2757  
Growing Degree Days 32 (Base 50)    
Moisture  
Dew Point 74 °F    
Average Humidity 78    
Maximum Humidity 100    
Minimum Humidity 56    
Precipitation  
Precipitation 0.42 in 0.19 in 4.72 in (1948)
Month to date precipitation 2.97 4.59  
Year to date precipitation 44.20 41.20  
Sea Level Pressure  
Sea Level Pressure 30.02 in    
Wind  
Wind Speed 4 mph (ESE)    
Max Wind Speed 20 mph    
Max Gust Speed 23 mph    
Visibility 10 miles    
Events Rain , Thunderstorm    
T = Trace of Precipitation, MM = Missing Value Source: NWS Daily Summary

Daily Weather History Graph

Daily Weather History Graph

Search for Another Location

Airport or City:

Trip Planner

Search our weather history database for the weather conditions in past years. The results will help you decide how hot, cold, wet, or windy it might be!

Date:

Astronomy

Sep. 22, 2011 Rise Set
Actual Time 7:13 AM EDT 7:22 PM EDT
Civil Twilight 6:50 AM EDT 7:45 PM EDT
Nautical Twilight 6:22 AM EDT 8:12 PM EDT
Astronomical Twilight 5:55 AM EDT 8:40 PM EDT
Moon 1:58 AM EDT (9/22) 3:51 PM EDT (9/22)
Length of Visible Light 12h 55m
Length of Day
12h 08m
Waning Crescent, 29% of the Moon is Illuminated
Sep 22
Waning Crescent
Sep 27
New
Oct 3
First Quarter
Oct 11
Full
Oct 19
Last Quarter

Hourly Weather History & Observations

Time (EDT) Temp. Heat Index Dew Point Humidity Pressure Visibility Wind Dir Wind Speed Gust Speed Precip Events Conditions
12:53 AM 77.0 °F - 75.0 °F 94% 30.04 in 10.0 mi East 3.5 mph - N/A   Scattered Clouds
1:53 AM 77.0 °F - 75.0 °F 94% 30.03 in 10.0 mi East 4.6 mph - N/A   Scattered Clouds
2:53 AM 75.9 °F - 75.0 °F 97% 30.01 in 10.0 mi East 4.6 mph - N/A   Partly Cloudy
3:53 AM 75.9 °F - 73.9 °F 94% 30.00 in 10.0 mi Calm Calm - N/A   Partly Cloudy
4:53 AM 75.9 °F - 73.9 °F 94% 30.00 in 10.0 mi ENE 3.5 mph - N/A   Partly Cloudy
5:53 AM 75.9 °F - 73.9 °F 94% 30.01 in 10.0 mi ENE 3.5 mph - N/A   Partly Cloudy
6:53 AM 75.0 °F - 73.9 °F 96% 30.03 in 10.0 mi NNE 4.6 mph - N/A   Scattered Clouds
7:53 AM 75.9 °F - 75.0 °F 97% 30.04 in 10.0 mi East 5.8 mph - N/A   Scattered Clouds
8:53 AM 81.0 °F 87.3 °F 75.9 °F 85% 30.05 in 10.0 mi East 4.6 mph - N/A   Mostly Cloudy
9:53 AM 84.0 °F 92.6 °F 75.9 °F 76% 30.05 in 10.0 mi SE 6.9 mph - N/A   Scattered Clouds
10:53 AM 87.1 °F 96.3 °F 75.0 °F 67% 30.05 in 10.0 mi SE 6.9 mph - N/A   Scattered Clouds
11:53 AM 89.1 °F 98.0 °F 73.9 °F 61% 30.03 in 10.0 mi ESE 8.1 mph - N/A   Scattered Clouds
12:53 PM 91.0 °F 100.4 °F 73.9 °F 57% 30.02 in 10.0 mi SSE 9.2 mph - N/A   Mostly Cloudy
1:34 PM 84.9 °F 94.1 °F 75.9 °F 74% 30.02 in 10.0 mi East 13.8 mph - N/A Thunderstorm Thunderstorm
1:53 PM 84.9 °F 93.3 °F 75.0 °F 72% 30.01 in 10.0 mi East 10.4 mph - N/A Thunderstorm Thunderstorm
2:35 PM 77.0 °F - 75.9 °F 96% 30.02 in 2.0 mi SSE 11.5 mph - 0.23 in Rain , Thunderstorm Heavy Thunderstorms and Rain
2:53 PM 75.9 °F - 73.9 °F 94% 29.99 in 6.0 mi SE 6.9 mph - 0.31 in Rain , Thunderstorm Light Thunderstorms and Rain
3:10 PM 78.1 °F - 73.9 °F 87% 29.99 in 10.0 mi East 3.5 mph - 0.01 in Rain , Thunderstorm Light Thunderstorms and Rain
3:53 PM 80.1 °F 84.5 °F 73.9 °F 81% 29.99 in 10.0 mi ENE 6.9 mph - 0.01 in Thunderstorm Thunderstorm
4:53 PM 77.0 °F - 73.9 °F 90% 30.00 in 10.0 mi East 5.8 mph - 0.01 in Rain , Thunderstorm Light Thunderstorms and Rain
5:53 PM 75.0 °F - 72.0 °F 90% 30.02 in 10.0 mi South 4.6 mph - 0.00 in Rain , Thunderstorm Light Thunderstorms and Rain
6:53 PM 73.9 °F - 73.0 °F 97% 30.02 in 10.0 mi Calm Calm - 0.05 in Rain , Thunderstorm Light Thunderstorms and Rain
7:27 PM 75.0 °F - 73.0 °F 94% 30.02 in 10.0 mi North 3.5 mph - 0.01 in Rain Light Rain
7:53 PM 75.0 °F - 73.0 °F 94% 30.02 in 10.0 mi Calm Calm - 0.02 in Rain Light Rain
8:53 PM 75.0 °F - 73.0 °F 94% 30.01 in 10.0 mi Calm Calm - 0.00 in   Overcast
9:53 PM 75.0 °F - 73.9 °F 96% 30.01 in 10.0 mi ESE 3.5 mph - 0.00 in   Overcast
10:16 PM 75.0 °F - 73.9 °F 96% 30.04 in 10.0 mi South 4.6 mph - N/A   Overcast
10:42 PM 73.9 °F - 73.0 °F 97% 30.04 in 10.0 mi South 4.6 mph - N/A   Mostly Cloudy
10:53 PM 75.0 °F - 73.9 °F 96% 30.02 in 8.0 mi Calm Calm - 0.01 in Rain Light Rain
11:53 PM 75.0 °F - 73.9 °F 96% 30.02 in 10.0 mi Calm Calm - 0.00 in Rain Light Rain